Home   Weather   Changsha   Past weeks
Flag for China

Past Weather in Changsha, Hunan, China — Yesterday and Last 2 Weeks

Now
61 °F

Fog.


Feels Like: 61 °F
Forecast: 58 / 53 °F
Wind: 8 mph from Northwest

Location: Changsha

Current Time: Oct 16, 2019 at 8:02:29 am

Latest Report: Oct 16, 2019 at 7:00 am


Visibility: 3 mi

Pressure: 30.24 "Hg

Humidity: 88%

Dew Point: 57 °F

Location of ChangshaLocation

Past Weather in Changsha — Graph

°F

Changsha Temperature Yesterday

Maximum temperature yesterday: 68 °F (at 12:00 am)
Minimum temperature yesterday: 63 °F (at 7:00 am)
Average temperature yesterday: 66 °F

High & Low Weather Summary for the Past Weeks

 TemperatureHumidityPressure
High100 °F (Oct 4, 4:00 pm)100% (Oct 6, 6:00 am)30.36 "Hg (Oct 6, 6:00 am)
Low61 °F (Oct 16, 5:00 am)20% (Oct 1, 3:00 pm)29.77 "Hg (Oct 1, 3:00 pm)
Average74 °F74%30.03 "Hg
* Reported Oct 1 6:00 am — Oct 16 6:00 am, Changsha. Weather by CustomWeather, © 2019

Note: Actual official high and low records may vary slightly from our data, if they occured in-between our weather recording intervals... More about our weather records

Advertising

Changsha Weather History for the Previous 24 Hours

Scroll right to see more
 ConditionsComfort  
Time TempWeatherWind HumidityBarometerVisibility
6:00 am
Wed, Oct 16
61 °FMostly cloudy.3 mph88%30.24 "Hg4 mi
5:00 am61 °FFog.8 mph88%30.21 "Hg3 mi
4:00 am63 °FFog.8 mph88%30.21 "Hg3 mi
3:00 am63 °FFog.3 mph88%30.21 "Hg3 mi
2:00 am63 °FFog.6 mph94%30.24 "Hg3 mi
1:00 am63 °FFog.3 mph94%30.24 "Hg3 mi
12:00 am63 °FFog.3 mph94%30.27 "Hg2 mi
11:00 pm
Tue, Oct 15
63 °FLight rain. Fog.1 mph94%30.27 "Hg2 mi
10:00 pm63 °FLight rain. Fog.3 mph94%30.30 "Hg3 mi
9:00 pm64 °FLight rain. Fog.6 mph88%30.27 "Hg3 mi
8:00 pm64 °FDrizzle. Mostly cloudy.3 mph88%30.27 "Hg4 mi
7:00 pm66 °FMostly cloudy.6 mph83%30.27 "Hg4 mi
6:00 pm64 °FFog.8 mph88%30.24 "Hg2 mi
5:00 pm66 °FFog.10 mph83%30.24 "Hg3 mi
4:00 pm66 °FFog.10 mph83%30.24 "Hg3 mi
3:00 pm68 °FFog.6 mph78%30.24 "Hg3 mi
2:00 pm68 °FFog.6 mph78%30.27 "Hg3 mi
1:00 pm68 °FMostly cloudy.6 mph78%30.30 "Hg4 mi
12:00 pm66 °FFog.8 mph83%30.33 "Hg3 mi
11:00 am66 °FOvercast.8 mph78%30.33 "Hg4 mi
10:00 am66 °FOvercast.8 mph78%30.36 "Hg4 mi
9:00 am64 °FFog.10 mph83%30.33 "Hg3 mi
8:00 am64 °FFog.10 mph83%30.33 "Hg2 mi
Weather by CustomWeather, © 2019

See weather overview